Flag for U.S.A. Weather past 2 weeks in St. George, Utah, U.S.A.

Now
70 °F

Clear.


Feels Like: 70 °F
Forecast: 68 / 96 °F
Wind: No wind

Location: Saint George

Current Time: Aug 29, 2014 at 8:27:50 AM

Latest Report: Aug 29, 2014 at 7:55 AM


Visibility: 10 mi

Pressure: 30.05 "Hg

Humidity: 38%

Dew point: 43 °F

Location of St. GeorgeLocation

Historic Weather in St. George — Graph

°F

St. George temperature yesterday

Maximum temperature yesterday: 97 °F (at 4:35 PM)
Minimum temperature yesterday: 64 °F (at 7:35 AM)
Average temperature yesterday: 80 °F

Past Weeks' High & Low Weather Summary

 TemperatureHumidityPressure
High102 °F (Aug 17, 4:35 PM)88% (Aug 19, 10:55 AM)30.21 "Hg (Aug 19, 10:55 AM)
Low61 °F (Aug 27, 7:35 AM)10% (Aug 17, 6:55 PM)29.82 "Hg (Aug 24, 7:15 PM)
Average80 °F38%29.99 "Hg
* Reported Aug 14 7:15 AM — Aug 29 7:35 AM, St. George, Weather by CustomWeather, © 2014

Note: Actual official high and low records may vary slightly from our data, if they occured in-between our weather recording intervals... More about our weather records

Advertising

St. George weather history for previous 24 hours

 ConditionsComfort  
Time TempWeatherWind HumidityBarometerVisibility
7:35 AM
Aug 29
68 °FClear.5 mph40%30.04 "Hg10 mi
7:15 AM68 °FClear.3 mph40%30.04 "Hg10 mi
6:55 AM66 °FClear.5 mph43%30.03 "Hg10 mi
6:35 AM66 °FClear.7 mph43%30.02 "Hg10 mi
5:55 AM68 °FClear.7 mph40%30.02 "Hg10 mi
5:35 AM70 °FClear.6 mph38%30.01 "Hg10 mi
5:15 AM72 °FClear.6 mph38%30.01 "Hg10 mi
4:55 AM72 °FClear.No wind36%30.01 "Hg10 mi
4:35 AM72 °FClear.No wind36%30.01 "Hg10 mi
4:15 AM70 °FClear.No wind38%30.00 "Hg10 mi
3:55 AM70 °FClear.5 mph38%30.00 "Hg10 mi
3:35 AM72 °FClear.5 mph36%30.00 "Hg10 mi
3:15 AM72 °FClear.5 mph36%30.00 "Hg10 mi
2:55 AM73 °FClear.5 mph33%30.00 "Hg10 mi
2:35 AM73 °FClear.No wind33%30.00 "Hg10 mi
2:15 AM73 °FClear.3 mph36%30.00 "Hg10 mi
1:55 AM75 °FClear.No wind34%30.00 "Hg10 mi
1:35 AM75 °FClear.No wind31%30.00 "Hg10 mi
1:15 AM75 °FClear.No wind34%30.00 "Hg10 mi
12:55 AM75 °FClear.7 mph34%30.00 "Hg10 mi
12:35 AM77 °FClear.6 mph32%30.00 "Hg10 mi
12:15 AM77 °FClear.5 mph34%30.00 "Hg10 mi
11:55 PM
Aug 28
79 °FClear.3 mph30%29.99 "Hg10 mi
11:35 PM81 °FClear.No wind28%30.00 "Hg10 mi
11:15 PM81 °FClear.No wind26%30.00 "Hg10 mi
10:55 PM79 °FClear.5 mph30%29.99 "Hg10 mi
10:35 PM81 °FClear.7 mph26%29.99 "Hg10 mi
10:15 PM84 °FClear.No wind23%29.99 "Hg10 mi
9:55 PM88 °FClear.5 mph21%29.99 "Hg10 mi
9:35 PM86 °FClear.No wind22%29.98 "Hg10 mi
9:15 PM88 °FClear.No wind21%29.97 "Hg10 mi
8:55 PM90 °FSunny.5 mph20%29.97 "Hg10 mi
8:35 PM90 °FSunny.7 mph18%29.96 "Hg10 mi
8:15 PM91 °FSunny.7 mph17%29.96 "Hg10 mi
7:55 PM91 °FSunny.7 mph17%29.96 "Hg10 mi
7:35 PM93 °FSunny.8 mph16%29.95 "Hg10 mi
7:15 PM93 °FSunny.8 mph16%29.95 "Hg10 mi
6:55 PM95 °FSunny.7 mph15%29.96 "Hg10 mi
6:35 PM95 °FSunny.6 mph15%29.96 "Hg10 mi
5:55 PM95 °FSunny.9 mph16%29.97 "Hg10 mi
5:35 PM95 °FSunny.8 mph16%29.97 "Hg10 mi
5:15 PM95 °FSunny.6 mph16%29.98 "Hg10 mi
4:55 PM93 °FSunny.3 mph17%29.99 "Hg10 mi
4:35 PM97 °FSunny.5 mph17%30.00 "Hg10 mi
4:15 PM93 °FSunny.No wind19%30.01 "Hg10 mi
3:55 PM93 °FSunny.7 mph19%30.02 "Hg10 mi
3:35 PM93 °FSunny.3 mph19%30.03 "Hg10 mi
3:15 PM91 °FSunny.No wind21%30.04 "Hg10 mi
2:55 PM91 °FSunny.8 mph21%30.05 "Hg10 mi
2:35 PM91 °FSunny.5 mph21%30.06 "Hg10 mi
2:15 PM90 °FSunny.7 mph24%30.07 "Hg10 mi
1:55 PM90 °FSunny.No wind24%30.08 "Hg10 mi
1:35 PM88 °FSunny.No wind25%30.09 "Hg10 mi
1:15 PM84 °FSunny.No wind29%30.11 "Hg10 mi
12:55 PM84 °FSunny.3 mph29%30.12 "Hg10 mi
12:35 PM82 °FSunny.No wind32%30.13 "Hg10 mi
11:55 AM81 °FSunny.No wind32%30.15 "Hg10 mi
11:35 AM79 °FSunny.No wind34%30.16 "Hg10 mi
11:15 AM77 °FSunny.No wind36%30.16 "Hg10 mi
10:55 AM75 °FSunny.No wind39%30.17 "Hg10 mi
10:35 AM75 °FSunny.No wind39%30.17 "Hg10 mi
10:15 AM73 °FSunny.No wind38%30.17 "Hg10 mi
9:55 AM73 °FSunny.No wind38%30.17 "Hg10 mi
9:35 AM72 °FSunny.No wind41%30.18 "Hg10 mi
9:15 AM72 °FSunny.No wind41%30.18 "Hg10 mi
8:55 AM70 °FSunny.No wind43%30.18 "Hg10 mi
8:35 AM68 °FSunny.No wind43%30.18 "Hg10 mi
8:15 AM66 °FSunny.No wind46%30.18 "Hg10 mi
Weather by CustomWeather, © 2014

See weather overviewHow to use our weather pages